Regional Weather Roundup
Issued by NWS Cleveland, OH

Home | Current Version | Previous Version | Graphics & Text | Print | Product List | Glossary On
Versions: 1 2 3 4 5 6 7 8 9 10 11 12 13 14 15 16 17 18 19 20 21 22 23 24 25 26 27 28 29 30 31 32 33 34 35 36 37 38 39 40 41 42 43 44 45 46 47 48 49 50
000
ASUS41 KCLE 081810
RWRCLE
OHIO REGIONAL WEATHER ROUNDUP
NATIONAL WEATHER SERVICE WILMINGTON, OH
100 PM EST THU DEC 08 2016

NOTE: "FAIR" INDICATES FEW OR NO CLOUDS BELOW 12,000 FEET WITH NO
SIGNIFICANT WEATHER AND/OR OBSTRUCTIONS TO VISIBILITY.

OHZ001>008-015>018-024>027-034-035-043-044-081900-
   NORTHWEST OHIO

CITY           SKY/WX    TMP DP  RH WIND       PRES   REMARKS
DEFIANCE       CLOUDY    26  14  60 W12G21    30.19S WCI  16
FINDLAY        CLOUDY    25  14  63 W24G30    30.18S WCI   9
TOLEDO EXPRESS CLOUDY    25  17  72 W23G29    30.15S WCI  10
TOLEDO EXEC    CLOUDY    26  18  71 W22G30    30.16S WCI  12
LIMA           LGT SNOW  22  17  81 W22G29    30.21S WCI   6
$$

OHZ009>014-019>023-028>033-038-089-081900-
   NORTHEAST OHIO

CITY           SKY/WX    TMP DP  RH WIND       PRES   REMARKS
CLE-HOPKINS    CLOUDY    28  14  55 W20G29    30.14F WCI  15
CLE-LAKEFRONT  CLOUDY    28  16  60 SW24G32   30.11F WCI  14
CUY CO. ARPT   LGT SNOW  27  18  69 SW21      30.09F WCI  13
LORAIN-ELYRIA  CLOUDY    26  16  65 W18       30.13F WCI  13
ASHTABULA      FLURRIES  27  21  78 SW21G32   30.05S WCI  13
AKRON-CANTON   FLURRIES  25  16  68 W16G23    30.11F WCI  12
WOOSTER        FLURRIES  24  15  68 W23G30    30.14S WCI   9
MANSFIELD      LGT SNOW  23  16  74 W14G22    30.13F WCI  11
YOUNGSTOWN     FLURRIES  25  15  66 W20G28    30.08S WCI  11
$$

OHZ042-051>053-060>062-070>072-077>081-081900-
  SOUTHWEST OHIO

CITY           SKY/WX    TMP DP  RH WIND       PRES   REMARKS
CINC-COVINGTON FAIR      32  15  49 W17       30.27F WCI  21
CINC-LUNKEN    FAIR      33  17  51 W15G28    30.31F WCI  23
HAMILTON       CLOUDY    32  17  54 NW18G24   30.31S WCI  20
DAYTON         FLURRIES  23  14  68 W18       30.26R WCI   9
WRIGHT-PAT AFB FLURRIES  25  15  64 W14G23    30.25R WCI  14
DAYTON GENERAL CLOUDY    27  14  58 W16G24    30.26R WCI  15
WILMINGTON     FAIR      29  16  58 W20G26    30.23S WCI  16
$$

OHZ036-037-039>041-045>050-054>059-063>069-073>076-082>088-081900-
  CENTRAL AND SOUTHEAST OHIO

CITY           SKY/WX    TMP DP  RH WIND       PRES   REMARKS
COLUMBUS       CLOUDY    27  17  66 W24       30.22S WCI  12
OSU AIRPORT    CLOUDY    25  16  68 W18       30.21S WCI  11
BOLTON FIELD   CLOUDY    28  18  64 W9G17     30.22F WCI  20
RICKENBACK AFB   N/A     29  16  59 W13G21    30.22F WCI  19
NEWARK         CLOUDY    27  16  63 W13G23    30.19F WCI  16
MARION         LGT SNOW  23  16  74 W15       30.20R WCI  10
LANCASTER      CLOUDY    30  17  58 W14G25    30.21F WCI  19
ZANESVILLE     CLOUDY    28  17  63 W14G21    30.18F WCI  17
NEW PHILLY     CLOUDY    26  17  68 W9G21     30.17S WCI  17
$$




USA.gov is the U.S. government's official web portal to all federal, state and local government web resources and services.